Location: Standeford and Andreas Observatories
(44.1397°N, 93.9969°W)
Time: 19:15:57
(UTC-05:00)

Cosmos 1500 Rocket - Visible Passes

Search period start: 30 August 2014 00:00
Search period end: 09 September 2014 00:00
Orbit: 605 x 633 km, 82.5° (Epoch: 30 August)

Date Brightness Start Highest point End Pass type
(mag) Time Alt. Az. Time Alt. Az. Time Alt. Az.
30 Aug 5.7 20:28:03 10° NE 20:28:42 10° ENE 20:29:22 10° ENE visible
30 Aug 3.5 22:02:45 10° N 22:07:13 84° W 22:08:11 55° S visible
31 Aug 5.2 20:43:25 10° NNE 20:46:30 18° ENE 20:48:38 14° ESE visible
31 Aug 4.5 22:20:22 10° NNW 22:24:36 45° W 22:25:48 36° SW visible
01 Sep 4.5 21:00:11 10° NNE 21:04:10 31° ENE 21:06:17 21° ESE visible
01 Sep 5.5 22:38:16 10° NW 22:41:54 25° W 22:43:28 20° WSW visible
02 Sep 3.7 21:17:20 10° N 21:21:45 56° E 21:23:58 27° SSE visible
02 Sep 6.3 22:56:46 10° NW 22:59:06 14° W 23:01:09 11° WSW visible
03 Sep 3.6 21:34:44 10° N 21:39:13 79° W 21:41:43 26° S visible
04 Sep 5.1 20:15:18 10° NNE 20:18:31 19° ENE 20:21:44 10° ESE visible
04 Sep 4.7 21:52:22 10° NNW 21:56:35 42° W 21:59:30 18° SSW visible
05 Sep 4.4 20:32:07 10° N 20:36:11 33° ENE 20:40:10 10° SE visible
05 Sep 5.8 22:10:19 10° NW 22:13:52 24° W 22:17:21 10° SW visible
06 Sep 3.6 20:49:18 10° N 20:53:44 60° E 20:58:05 10° SSE visible
06 Sep 6.4 22:28:56 10° NW 22:31:03 13° W 22:33:10 10° WSW visible
07 Sep 3.8 21:06:43 10° NNW 21:11:12 74° W 21:15:39 10° S visible
08 Sep 4.9 21:24:23 10° NNW 21:28:34 40° W 21:32:43 10° SSW visible
